Zurück zum Katalog

DMSP 5D-2 F13 DEB

AktivSSO
NORAD 40513·DEBRIS·🇺🇸 United States

Gestartet Mar 24, 1995 von Vandenberg Space Force Base

Loading…

Nächste Überflüge (nächste 24 Stunden)

TLE

AktuellSource: Space-Track

Epoche: Sep 13, 2026, 06:37 UTC

1 40513U 95015CZ  26256.27606635  .00000634  00000-0  30178-3 0  9994
2 40513  98.7592 275.8305 0006085 214.9188 145.1591 14.22865118594098

Verfolge DMSP 5D-2 F13 DEB in Echtzeit mit AllMySat

Download on the App Store